Location: Byszew
(52.1813°N, 19.2693°E)
Time: 18:42:42
(UTC+00:00)

NOAA 18 - Pass Details

Date: 02 July 2022
Orbit: 839 x 860 km, 98.9° (Epoch: 17 August)

Event Time Altitude Azimuth Distance (km) Brightness Sun altitude
Exits shadow 20:44:26 - 185° (S) 2,705 7.3 -10.2°
Reaches altitude 10° 20:45:02 10° 187° (S) 2,479 7.2 -10.2°
Maximum altitude 20:50:20 47° 261° (W) 1,125 6.0 -10.6°
Drops below altitude 10° 20:55:42 10° 335° (NNW) 2,508 9.3 -11.0°
Sets 20:58:12 0° 341° (NNW) 3,451 10.5 -11.2°
